| time (UTC) | temp F | wind direction | speed knots | gust knots | rain 1hr in | rain 24hr in | rain mn in | humidity % | barometer mb |
| 20260504023503 | 48 | 240 | 4.3 | 0.0 | 0.00 | 0.00 | 0.00 | 58 | 1016.0 |
| 20260504020503 | 48 | 1.7 | 0.0 | 0.00 | 0.00 | 0.00 | 54 | 1016.0 | |
| 20260504013503 | 48 | 230 | 0.9 | 0.0 | 0.00 | 0.00 | 0.00 | 58 | 1016.0 |
| 20260504010503 | 48 | 0 | 0.0 | 0.0 | 0.00 | 0.00 | 0.00 | 58 | 1016.0 |
| 20260504003503 | 48 | 1.7 | 0.0 | 0.00 | 0.00 | 0.00 | 58 | 1017.0 | |
| 20260504000502 | 46 | 1.7 | 0.0 | 0.00 | 0.00 | 0.00 | 66 | 1017.0 | |
| 20260503233503 | 50 | 240 | 1.7 | 0.0 | 0.00 | 0.00 | 0.00 | 50 | 1017.0 |
| 20260503230503 | 50 | 270 | 4.3 | 0.0 | 0.00 | 0.00 | 0.00 | 50 | 1017.0 |
| 20260503223502 | 52 | 250 | 1.7 | 0.0 | 0.00 | 0.00 | 0.00 | 44 | 1017.0 |
| 20260503220504 | 52 | 240 | 1.7 | 0.0 | 0.00 | 0.00 | 0.00 | 44 | 1017.0 |
| 20260503213503 | 52 | 0.9 | 0.0 | 0.00 | 0.00 | 0.00 | 44 | 1017.0 | |
| 20260503210502 | 54 | 1.7 | 0.0 | 0.00 | 0.00 | 0.00 | 41 | 1017.0 | |
| 20260503203502 | 54 | 220 | 4.3 | 0.0 | 0.00 | 0.00 | 0.00 | 41 | 1018.0 |
| 20260503200502 | 54 | 230 | 4.3 | 0.0 | 0.00 | 0.00 | 0.00 | 41 | 1018.0 |
| 20260503193502 | 54 | 220 | 4.3 | 0.0 | 0.00 | 0.00 | 0.00 | 44 | 1018.0 |
| 20260503190503 | 54 | 210 | 4.3 | 0.0 | 0.00 | 0.00 | 0.00 | 41 | 1018.0 |
| 20260503183502 | 57 | 220 | 2.6 | 0.0 | 0.00 | 0.00 | 0.00 | 36 | 1018.0 |
| 20260503180502 | 57 | 260 | 2.6 | 0.0 | 0.00 | 0.00 | 0.00 | 33 | 1018.0 |
| 20260503173502 | 57 | 270 | 4.3 | 0.0 | 0.00 | 0.00 | 0.00 | 36 | 1018.0 |
| 20260503170503 | 59 | 1.7 | 0.0 | 0.00 | 0.00 | 0.00 | 34 | 1018.0 | |
| 20260503150503 | 61 | 310 | 4.3 | 0.0 | 0.00 | 0.00 | 0.00 | 31 | 1019.0 |
| 20260503130502 | 61 | 2.6 | 0.0 | 0.00 | 0.00 | 0.00 | 27 | 1020.0 | |
| 20260503110502 | 61 | 2.6 | 0.0 | 0.00 | 0.00 | 0.00 | 27 | 1022.0 | |
| 20260503090502 | 59 | 70 | 5.2 | 0.0 | 0.00 | 0.00 | 0.00 | 31 | 1023.0 |
| 20260503080502 | 57 | 1.7 | 0.0 | 0.00 | 0.00 | 0.00 | 27 | 1023.0 | |
| 20260503070503 | 55 | 1.7 | 0.0 | 0.00 | 0.00 | 0.00 | 33 | 1023.0 | |
| 20260503053504 | 43 | 220 | 1.7 | 0.0 | 0.00 | 0.00 | 0.00 | 61 | 1023.0 |
| 20260503050503 | 43 | 220 | 1.7 | 0.0 | 0.00 | 0.00 | 0.00 | 61 | 1023.0 |
| 20260503043503 | 41 | 1.7 | 0.0 | 0.00 | 0.00 | 0.00 | 66 | 1023.0 | |
| 20260503040504 | 39 | 0 | 0.0 | 0.0 | 0.00 | 0.00 | 0.00 | 70 | 1023.0 |
| 20260503033502 | 36 | 0 | 0.0 | 0.0 | 0.00 | 0.00 | 0.00 | 75 | 1023.0 |
| 20260503030503 | 36 | 0 | 0.0 | 0.0 | 0.00 | 0.00 | 0.00 | 75 | 1023.0 |